Probability
0 0 0 0 0 0 0 0 0 0 0 0 0 0 0 0 0 0 0 0 0 0 0 0 0 0 0 0 0 0 0 0 0 0 0 0 0 0 0 0 0 0 0 0
0 0 0 0 0 0 0 0 0 0 0 0 0 0 0 0 0 0 0 0 0 0 0 0 0 0 0 0 0 0 0 0 0 0 0 0 0 0 0 0 0 0 0 0
0 0 0 0 0 0 0 0 0 0 0 0 0 0 0 0 0 0 0 0 0 0 0 0 0 0 0 0 0 0 0 0 0 0 0 0 0 0 0 0 0 0 0 0
0 0 0 0 0 0 0 0 0 0 0 0 0 0 0 0 0 0 0 0 0 0 0 0 0 0 0 0 0 0 0 0 0 0 0 0 0 0 0 0 0 0 0 0
0 0 0 0 0 0 0 0 0 0 0 0 0 0 0 0 0 0 0 0 0 0 0 0 0 0 0 0 0 0 0 0 0 0 0 0 0 0 0 0 0 0 0 0
0 0 0 0 0 0 0 0 0 0 0 0 0 0 0 0 0 0 0 0 0 0 0 0 0 0 0 0 0 0 0 0 0 0 0 0 0 0 0 0 0 0 0 0
0 0 0 0 0 0 0 0 0 0 0 0 0 0 0 0 0 0 0 0 0 0 0 0 0 0 0 0 0 0 0 0 0 0 0 0 0 0 0 0 0 0 0 0
0 0 0 0 0 0 0 0 0 0 0 0 0 0 0 0 0 0 0 0 0 0 0 0 0 0 0 0 0 0 0 0 0 0 0 0 0 0 0 0 0 0 0 0
0 0 0 0 0 0 0 0 0 0 0 0 0 0 0 0 0 0 0 0 0 0 0 0 0 0 0 0 0 0 0 0 0 0 0 0 0 0 0 0 0 0 0 0
0 0 0 0 0 0 0 0 0 0 0 0 0 0 0 0 0 0 0 0 0 0 0 0 0 0 0 0 0 0 0 0 0 0 0 0 0 0 0 0 0 0 0 0
0 0 0 0 0 0 0 0 0 0 0 0 0 0 0 0 0 0 0 0 0 0 0 0 0 0 0 0 0 0 0 0 0 0 0 0 0 0 0 0 0 0 0 0
0 0 0 0 0 0 0 0 0 0 0 0 0 0 0 0 0 0 0 0 0 0 0 0 0 0 0 0 0 0 0 0 0 0 0 0 0 0 0 0 0 0 0 0
0 0 0 0 0 0 0 0 0 0 0 0 0 0 0 0 0 0 0 0 0 0 0 0 0 0 0 0 0 0 0 0 0 0 0 0 0 0 0 0 0 0 0 0
0 0 0 0 0 0 0 0 0 0 0 0 0 0 0 0 0 0 0 0 0 0 0 0 0 0 0 0 0 0 0 0 0 0 0 0 0 0 0 0 0 0 0 0
0 0 0 0 0 0 0 0 0 0 0 0 0 0 0 0 0 0 0 0 0 0 0 0 0 0 0 0 0 0 0 0 0 0 0 0 0 0 0 0 0 0 0 0
0 0 0 0 0 0 0 0 0 0 0 0 0 0 0 0 0 0 0 0 0 0 0 0 0 0 0 0 0 0 0 0 0 0 0 0 0 0 0 0 0 0 0 0
0 0 0 0 0 0 0 0 0 0 0 0 0 0 0 0 0 0 0 0 0 0 0 0 0 0 0 0 0 0 0 0 0 0 0 0 0 0 0 0 0 0 0 0
0 0 0 0 0 0 0 0 0 0 0 0 0 0 0 0 0 0 0 0 0 0 0 0 0 0 0 0 0 0 0 0 0 0 0 0 0 0 0 0 0 0 0 0
0 0 0 0 0 0 0 0 0 0 0 0 0 0 0 0 0 0 0 0 0 0 0 0 0 0 0 0 0 0 0 0 0 0 0 0 0 0 0 0 0 0 0 0
0 0 0 0 0 0 0 0 0 0 0 0 0 0 0 0 0 0 0 0 0 0 0 0 0 0 0 0 0 0 0 0 0 0 0 0 0 0 0 0 0 0 0 0
0 0 0 0 0 0 0 0 0 0 0 0 0 0 0 0 0 0 0 0 0 0 0 0 0 0 0 0 0 0 0 0 0 0 0 0 0 0 0 0 0 0 0 0
0 0 0 0 0 0 0 0 0 0 0 0 0 0 0 0 0 0 0 0 0 0 0 0 0 0 0 0 0 0 0 0 0 0 0 0 0 0 0 0 0 0 0 0
0 0 0 0 0 0 0 0 0 0 0 0 0 0 0 0 0 0 0 0 0 0 0 0 0 0 0 0 0 0 0 0 0 0 0 0 0 0 0 0 0 0 0 0
0 0 0 0 0 0 0 0 0 0 0 0 0 0 0 0 0 0 0 0 0 0 0 0 0 0 0 0 0 0 0 0 0 0 0 0 0 0 0 0 0 0 0 0
0 0 0 0 0 0 0 0 0 0 0 0 0 0 0 0 0 0 0 0 0 0 0 0 0 0 0 0 0 0 0 0 0 0 0 0 0 0 0 0 0 0 0 0
0 0 0 0 0 0 0 0 0 0 0 0 0 0 0 0 0 0 0 0 0 0 0 0 0 0 0 0 0 0 0 0 0 0 0 0 0 0 0 0 0 0 0 0
Wind_Speed
3 3 1 5 5 5 5 5 7 1 7 6 9 11 10 15 12 11 11 12 12 12 11 10 10 9 8 7 5 3 1 1 1 1 2 3 3 4 3 2 3 4 4 5
4 1 4 3 1 3 5 6 7 3 5 5 7 11 7 16 17 14 12 12 12 11 10 11 11 10 9 8 6 4 2 1 1 1 2 3 4 4 4 2 3 4 5 5
3 4 2 1 3 5 7 4 4 4 2 7 4 6 3 6 9 10 10 9 10 12 12 13 12 11 9 8 7 4 3 1 1 0 2 3 3 3 3 3 3 4 5 5
1 3 1 3 4 2 4 5 3 4 5 3 4 4 5 6 6 10 11 11 11 10 11 12 14 12 10 8 7 5 3 3 2 1 2 3 3 4 4 3 4 5 5 6
2 3 3 4 1 1 3 2 3 5 5 5 5 4 3 6 7 11 12 12 11 9 9 11 13 12 10 9 7 5 4 4 3 2 2 3 4 3 4 4 5 5 5 6
2 1 1 2 1 2 5 5 6 3 3 5 4 4 3 6 7 8 9 10 10 9 8 9 11 10 9 9 7 6 5 5 4 3 3 3 4 5 6 6 5 5 4 5
6 5 3 1 4 5 4 4 2 2 3 3 2 3 5 7 6 6 7 7 7 8 9 9 11 11 10 10 8 7 6 5 4 3 3 4 4 5 5 5 5 6 5 5
4 5 6 3 2 3 2 3 3 3 4 2 3 5 3 6 6 4 4 4 5 7 8 9 11 10 10 10 9 8 7 5 4 4 4 4 4 3 3 5 5 5 5 5
5 2 3 2 1 2 3 0 2 3 5 5 6 6 3 2 4 6 6 6 7 8 9 9 10 10 10 10 10 8 7 6 5 4 4 4 4 4 5 5 5 5 5 6
4 4 5 4 2 3 3 4 2 3 3 5 7 5 5 8 9 10 9 10 10 9 9 10 10 10 9 9 8 8 7 6 5 4 4 4 4 5 5 5 6 6 6 6
3 4 3 4 6 6 5 3 4 3 2 2 5 7 0 6 7 8 10 10 10 11 11 10 10 9 9 8 8 8 7 6 5 5 4 4 4 5 5 6 6 6 6 6
0 3 5 2 2 3 0 3 3 3 4 4 4 9 2 4 4 5 6 6 7 10 10 10 10 10 9 9 8 8 7 6 6 5 4 4 5 5 6 6 6 6 6 7
2 3 4 2 1 0 2 4 4 2 2 3 5 10 2 3 5 6 7 6 7 9 10 10 10 10 10 9 9 8 8 7 6 5 4 5 5 5 6 6 6 6 7 7
2 4 6 5 1 1 5 6 7 6 5 6 10 12 7 7 6 6 8 8 8 9 11 11 11 10 10 10 9 8 8 7 6 5 4 5 5 5 6 6 6 7 7 7
2 4 6 10 8 6 7 8 10 13 11 9 10 11 13 9 7 5 4 6 7 9 11 12 12 11 10 10 9 9 8 7 6 5 5 5 5 5 5 6 7 7 7 9
3 4 4 7 6 4 8 13 14 14 13 15 15 19 16 11 5 4 4 7 9 10 13 13 13 12 12 12 10 9 8 7 6 5 5 5 5 5 6 6 7 7 8 8
5 4 3 5 1 4 12 13 16 10 12 11 16 16 8 6 7 7 8 8 10 11 12 13 14 13 12 12 11 10 8 6 6 5 5 5 5 6 6 7 7 7 8 7
4 3 2 4 4 10 11 1 7 11 10 12 12 10 9 9 6 6 7 9 10 10 11 13 13 12 10 10 9 9 8 7 6 6 6 6 6 7 6 6 7 7 7 7
3 3 3 3 5 11 9 3 5 7 9 12 17 17 16 8 6 8 11 11 10 10 10 11 11 11 10 10 10 9 8 7 7 7 7 7 6 6 6 6 7 6 6 7
2 2 2 4 5 10 9 2 2 3 8 9 11 13 12 2 4 9 4 6 7 7 8 9 10 10 11 11 11 11 9 9 9 9 8 6 5 5 6 7 6 6 6 7
4 4 5 6 8 14 6 4 4 4 9 4 8 10 8 10 13 8 5 5 6 7 8 9 11 11 12 12 12 11 10 11 10 8 6 5 5 6 6 6 5 6 6 6
12 10 9 7 8 16 7 8 10 12 5 4 6 8 9 11 11 7 7 8 8 8 8 10 10 10 10 13 13 12 12 10 8 7 6 6 6 6 5 5 6 5 5 6
11 13 10 14 15 7 11 13 11 5 6 7 7 9 9 10 11 10 9 9 9 10 10 10 10 10 10 13 14 14 11 9 8 7 6 6 6 5 5 5 5 4 4 4
8 6 6 9 13 11 9 12 13 13 14 15 13 11 9 12 12 11 10 10 10 11 12 11 11 12 13 13 13 12 9 9 9 8 7 6 5 5 5 4 4 3 3 4
8 6 6 11 9 8 11 13 17 17 16 15 15 13 13 13 14 13 11 11 12 12 12 12 14 15 15 14 14 11 10 10 9 8 7 6 5 4 4 4 4 4 4 5
10 9 10 15 10 8 11 7 9 12 14 14 14 14 12 12 15 13 12 11 11 12 13 13 15 15 15 15 14 13 11 12 10 8 7 6 4 4 4 3 4 8 8 11
Wind_Direction
222 245 71 47 34 341 324 314 299 7 145 201 238 250 212 179 193 203 202 204 206 205 192 178 164 156 154 159 165 159 151 78 29 16 338 323 318 306 299 295 313 325 322 319
249 158 69 61 29 296 284 288 297 98 152 218 269 271 242 177 193 202 208 208 208 201 188 177 167 165 167 170 165 161 158 124 44 50 300 277 284 285 283 298 329 318 309 304
346 74 75 284 256 284 280 280 336 341 272 223 272 281 155 151 184 200 218 222 212 202 193 179 174 174 172 170 161 167 163 189 196 329 283 300 301 300 316 331 317 301 299 299
118 115 209 264 267 309 306 49 356 307 304 271 189 281 188 163 190 207 215 222 225 212 192 180 176 177 173 162 146 158 179 201 204 233 275 299 299 301 303 300 290 297 301 304
141 143 224 258 24 4 320 15 275 277 271 279 220 241 205 160 206 215 215 217 217 211 192 178 173 172 163 149 149 166 188 207 205 222 259 274 283 287 292 296 297 303 303 299
96 116 316 4 68 246 298 278 235 247 254 257 189 212 239 194 192 181 192 201 202 196 184 167 158 155 151 147 154 172 195 210 206 219 250 263 279 289 298 302 303 302 296 294
183 178 152 220 251 204 240 288 264 225 218 223 93 238 248 150 143 158 173 179 181 177 169 160 156 160 159 160 166 179 197 212 209 218 244 259 268 276 283 292 295 297 294 294
234 177 158 180 317 335 296 299 333 303 310 326 207 233 228 146 131 124 139 160 170 172 170 167 166 166 166 168 173 185 197 207 209 219 241 251 263 265 268 277 282 285 285 286
327 91 111 88 22 302 290 203 51 305 281 269 250 211 125 142 175 188 197 200 202 192 178 172 168 168 169 172 179 185 192 204 209 220 238 249 260 267 269 276 277 276 277 288
312 297 155 141 206 226 286 331 282 248 288 294 288 272 215 198 215 208 208 208 205 192 182 176 174 172 171 172 174 179 191 202 208 218 234 250 253 260 266 272 273 275 280 285
296 284 177 177 211 199 184 212 229 269 288 259 291 278 110 161 177 191 206 206 197 188 184 180 176 172 167 165 171 183 193 200 208 217 230 252 260 264 268 269 272 277 282 286
328 307 269 182 90 31 286 244 212 230 247 221 258 271 189 125 150 186 209 199 186 181 180 176 171 167 169 174 179 187 193 198 206 211 225 247 258 264 267 272 278 283 285 285
3 269 277 231 320 344 251 232 227 267 329 256 244 260 172 165 206 216 218 209 187 175 174 173 173 176 179 182 185 189 192 196 198 204 224 248 260 266 272 278 283 285 284 284
11 264 246 267 334 185 221 209 195 193 209 234 234 256 262 243 240 236 220 208 189 180 179 181 184 184 184 184 186 187 191 189 191 201 223 246 258 268 275 281 283 283 283 284
225 263 266 273 276 244 243 230 200 207 216 229 247 259 270 284 295 284 224 193 186 185 188 190 190 187 185 184 185 185 188 185 186 200 223 243 257 270 278 283 284 284 284 287
214 261 284 279 253 254 265 244 226 224 229 244 263 274 270 275 271 259 233 207 206 203 199 196 192 190 189 187 186 182 184 182 180 200 224 243 259 269 275 279 279 281 281 280
198 234 274 279 184 316 267 238 207 206 210 205 228 241 257 254 242 241 238 225 218 212 201 196 196 195 191 187 181 180 178 169 177 203 225 240 251 260 263 273 280 280 280 281
203 203 258 286 317 253 246 302 191 205 231 218 239 257 265 262 275 265 243 233 229 213 201 196 192 190 183 174 168 162 160 168 186 208 225 235 242 252 260 267 274 278 279 282
334 208 236 257 268 276 273 218 172 194 260 226 231 251 261 273 323 280 246 226 220 208 195 189 183 178 170 166 160 154 165 177 195 213 223 229 234 247 259 268 273 276 282 284
294 299 229 214 236 250 260 136 100 121 281 249 213 235 251 212 284 271 227 195 201 188 175 170 165 162 165 164 156 163 179 190 206 212 218 223 229 243 255 263 272 278 281 281
170 195 207 219 238 262 259 141 126 180 246 225 205 225 226 206 226 241 189 195 193 182 170 162 163 170 172 163 161 177 188 203 207 203 208 218 229 240 251 262 270 276 281 286
178 180 199 189 212 253 194 152 194 221 246 229 232 233 232 235 245 233 212 208 195 184 173 167 170 173 167 165 170 185 200 201 191 190 201 218 231 241 249 256 267 272 282 293
196 195 192 197 216 240 174 205 227 259 272 263 257 255 244 249 251 240 227 213 203 192 184 177 175 172 171 174 180 192 198 185 180 184 203 220 232 239 242 249 262 275 283 288
221 208 223 241 249 253 231 234 251 253 252 259 261 260 249 247 251 246 231 216 206 198 190 181 175 180 184 185 190 194 184 175 174 189 205 217 226 238 246 250 250 255 266 277
231 188 224 250 260 283 265 238 243 252 255 257 259 253 245 243 248 241 233 219 208 200 191 185 189 193 192 186 192 190 178 170 178 191 204 213 218 226 243 250 249 258 240 253
227 213 222 251 244 236 260 254 247 254 259 256 258 261 250 234 242 240 234 220 206 199 190 191 196 197 191 187 191 187 178 173 179 193 202 205 207 216 228 247 274 285 283 288